Tracking 19245 objects as of 18-Aug-2018
HD Live streaming from Space Station
objects crossing your sky now

COSMOS 304

Track COSMOS 304 now!
10-day predictions
COSMOS 304 is classified as:


NORAD ID: 4138
Int'l Code: 1969-091A
Perigee: 736.8 km
Apogee: 754.9 km
Inclination: 74.0 °
Period: 99.6 minutes
Semi major axis: 7116 km
RCS: 1.933 m2 (large)
Launch date: October 21, 1969
Source: Commonwealth of Independent States (former USSR) (CIS)
Launch site: PLESETSK MISSILE AND SPACE COMPLEX (PKMTR)
aabbcc
Your satellite tracking list
Your tracking list is empty




NASA's NSSDC Master Catalog

Two Line Element Set (TLE):
1 04138U 69091A   18230.19436269 -.00000010  00000-0  48548-5 0  9991
2 04138  74.0399 167.5448 0012703 168.6703 191.4744 14.46000939574764
Source of the keplerian elements: AFSPC